This is the latest recevied weather packets stored in our database for station/object K1BES. If no packets are shown the sender has not sent any weather packets the latest 10 day(s).
| Time | Temp. | Humidity | Pressure | Rain* | Wind** | Luminosity | Snow |
|---|---|---|---|---|---|---|---|
| 1788630132 | 33.89° C | 68% | 1016.2 hPa | 0 mm | - | 1000 W/m² | - |
| 1788629828 | 33.89° C | 69% | 1016.5 hPa | 0 mm | - | 1000 W/m² | - |
| 1788629558 | 33.89° C | 69% | 1016.5 hPa | 0 mm | - | 1000 W/m² | - |
| 1788629223 | 33.89° C | 70% | 1016.5 hPa | 0 mm | - | 1000 W/m² | - |
| 1788628923 | 33.33° C | 68% | 1016.5 hPa | 0 mm | - | 999 W/m² | - |
| 1788628619 | 33.33° C | 68% | 1016.6 hPa | 0 mm | - | 998 W/m² | - |
| 1788628315 | 33.33° C | 69% | 1016.5 hPa | 0 mm | - | 997 W/m² | - |
| 1788628012 | 33.33° C | 69% | 1016.8 hPa | 0 mm | - | 992 W/m² | - |
| 1788627707 | 32.78° C | 69% | 1016.8 hPa | 0 mm | - | 986 W/m² | - |
| 1788627406 | 33.33° C | 69% | 1017 hPa | 0 mm | - | 981 W/m² | - |
| 1788627102 | 33.33° C | 69% | 1016.8 hPa | 0 mm | - | 978 W/m² | - |
| 1788626802 | 33.33° C | 69% | 1016.9 hPa | 0 mm | - | 972 W/m² | - |
| 1788626501 | 33.33° C | 69% | 1016.9 hPa | 0 mm | - | 970 W/m² | - |
| 1788626197 | 33.33° C | 66% | 1017 hPa | 0 mm | - | 957 W/m² | - |
| 1788625894 | 33.33° C | 68% | 1017 hPa | 0 mm | - | 954 W/m² | - |
| 1788625590 | 33.33° C | 69% | 1016.8 hPa | 0 mm | - | 940 W/m² | - |
| 1788625289 | 33.33° C | 68% | 1017.1 hPa | 0 mm | - | 889 W/m² | - |
| 1788624989 | 33.33° C | 69% | 1017.1 hPa | 0 mm | - | 946 W/m² | - |
| 1788624687 | 33.33° C | 68% | 1017 hPa | 0 mm | - | 947 W/m² | - |
| 1788624381 | 33.89° C | 67% | 1017 hPa | 0 mm | - | 894 W/m² | - |
| 1788624081 | 33.89° C | 68% | 1017.2 hPa | 0 mm | - | 945 W/m² | - |
| 1788623781 | 33.33° C | 68% | 1017.2 hPa | 0 mm | - | 914 W/m² | - |
| 1788623480 | 32.78° C | 69% | 1017.5 hPa | 0 mm | - | 943 W/m² | - |
| 1788623180 | 32.78° C | 68% | 1017.1 hPa | 0 mm | - | 580 W/m² | - |
| 1788622876 | 32.78° C | 67% | 1017.2 hPa | 0 mm | - | 816 W/m² | - |
* Rain latest hour (hover to see other rain measurements)
** Current wind speed in m/s (hover to see current wind gust speed)